Regional Weather Roundup
Issued by NWS

Home | Current Version | Previous Version | Graphics & Text | Print | Product List | Glossary On
Versions: 1 2 3 4 5 6 7 8 9 10 11 12 13 14 15 16 17 18 19 20 21 22 23 24 25 26 27 28 29 30 31 32 33 34 35 36 37 38 39 40 41 42 43 44 45 46 47 48 49 50
000
ASUS45 KBOU 131507
RWRCO

WEATHER ROUNDUP FOR COLORADO
NATIONAL WEATHER SERVICE DENVER/BOULDER CO
800 AM MST SAT FEB 13 2016

NOTE: "FAIR" INDICATES FEW OR NO CLOUDS BELOW 12000 FEET WITH NO
SIGNIFICANT WEATHER AND/OR OBSTRUCTIONS TO VISIBILITY.

COZ001>005-013-030-031-131600-
...NORTHWEST COLORADO...

CITY           SKY/WX    TMP DP  RH WIND       PRES   REMARKS
CRAIG          FAIR       9   7  92 SW5       30.26R WCI   1
HAYDEN         FAIR      23  16  74 E13       30.24R WCI  11
MEEKER         FAIR      18  11  74 CALM      30.25R
MOUNT WERNER   NOT AVBL
STEAMBOAT SPGS FAIR      12  10  90 E6        30.25R WCI   3
WALDEN         FAIR      32  12  43 S6        30.21S WCI  26
$$

COZ006>008-011-131600-
...WEST CENTRAL VALLEYS...

CITY           SKY/WX    TMP DP  RH WIND       PRES   REMARKS
GRAND JUNCTION FAIR      26  24  92 CALM      30.29R
MONTROSE       FAIR      26  20  77 S7        30.31S WCI  18
EAGLE          PTCLDY    18  14  86 CALM      30.32F
RIFLE          FAIR      20  15  81 CALM      30.31R
DELTA          FAIR      31  27  85 CALM      30.31S
NUCLA          FAIR      28  23  80 SE3       30.35R
$$

COZ017>023-064>068-131600-
...SOUTHWEST COLORADO...

CITY           SKY/WX    TMP DP  RH WIND       PRES   REMARKS
DURANGO        FAIR      19  14  81 N3        30.32S
CORTEZ         FAIR      25  19  78 NE7       30.31S WCI  17
PAGOSA SPRINGS FAIR      24  20  88 CALM      30.36S
TELLURIDE      FAIR      35  10  35 SE5       30.39R WCI  31
WOLF CREEK PAS FAIR      28  14  54 SW26G33   30.45S WCI  13
$$

COZ009-010-012-014-032>034-037-058>063-131600-
...CENTRAL COLORADO...

CITY           SKY/WX    TMP DP  RH WIND       PRES   REMARKS
ASPEN          FAIR      26  17  68 S3        30.27S
BUENA VISTA    FAIR      28  22  76 CALM      30.25S
COPPER MTN     FAIR      34   0  23 W24G39    30.34S WCI  21
BERTHOUD PASS  FAIR      23  12  63 NW38G46   30.27F WCI   4
COTTONWOOD PAS FAIR      43  -6  13 W15G24    30.28F
GUNNISON       FAIR      -9 -24  49 CALM      30.44S
KREMMLING      CLOUDY     0  -6  78 CALM      30.32S
LEADVILLE      FAIR      31   8  38 N8        30.29S WCI  23
MONARCH PASS   FAIR      27   5  39 W37G44    30.47S WCI   9
SALIDA         NOT AVBL
SUNLIGHT       FAIR      32  12  43 CALM      30.38S
WILKERSON PASS FAIR      30   9  40 SW14G25   30.30S WCI  20
$$

COZ069>075-131600-
...SAN LUIS VALLEY/SANGRE DE CRISTO MOUNTAINS...

CITY           SKY/WX    TMP DP  RH WIND       PRES   REMARKS
ALAMOSA        FAIR      24  20  84 CALM      30.31S
LA VETA PASS   FAIR      32  18  55 S12G22    30.31S WCI  23
SAGUACHE       FAIR      30  19  64 NW10      30.32S WCI  21
$$

COZ035-036-038>040-131600-
...NORTHERN COLORADO FRONT RANGE...

CITY           SKY/WX    TMP DP  RH WIND       PRES   REMARKS
DENVER INTL AP FOG       29  26  89 SW7       30.07S VSB 1/4 WCI  22
DMNS CITY PARK   N/A     29  29  99 N3G13     30.08S
AURORA         PTSUNNY   26  26 100 CALM      30.08S
FRONT RANGE AP PTSUNNY   27  27 100 MISG      30.07F VSB 1
ERIE MUNI ARPT FOG       29  29 100 CALM      30.08R VSB 1/4
BOULDER MUN AP FOG       30  30 100 CALM      30.07S VSB<1/4
CENTENNIAL     PTSUNNY   42  25  50 S6        30.07S
BROOMFIELD     FOG       27  27 100 CALM      30.07  VSB 1/4
FORT COLLINS   CLOUDY    28  28 100 SW5       30.09S VSB 1/4 WCI  23
LONGMONT       FOG       31  30  96 CALM      30.09F VSB 1/4
$$

COZ041-046-047-076>085-087-088-131600-
...PIKES PEAK/PALMER DIVIDE AND SOUTHERN FOOTHILLS...

CITY           SKY/WX    TMP DP  RH WIND       PRES   REMARKS
COLO. SPRINGS  PTSUNNY   39  26  59 NE6       30.12F
A. F. ACADEMY  FAIR      39  22  51 VRB5      30.12R
SCHRIEVER AFB  FAIR      39  26  61 NW5       30.12S
ELLICOTT       FAIR     N/A N/A N/A CALM      30.11S
FALCON         FAIR      42  21  43 CALM      30.15S
FORT CARSON    FAIR      26  26  97 N5        30.10F WCI  21
LIMON          FOG       26  26 100 SE7       30.11S VSB 3/4 WCI  18
MONUMENT HILL  FAIR      43  21  42 SW15      30.14S
TRINIDAD       FAIR      47  21  35 W12       30.15F
$$

COZ042>045-048>051-090-091-131600-
...NORTHEAST COLORADO...

CITY           SKY/WX    TMP DP  RH WIND       PRES   REMARKS
GREELEY ARPT   CLOUDY    30  28  93 NW5       30.10S VSB<1/4 WCI  25
AKRON          FAIR      28  28 100 S9        30.08F WCI  19
BURLINGTON     FOG       26  24  92 S17       30.17F VSB 1/2 WCI  13
WRAY           CLOUDY    28  28 100 S15G23    30.18S FOG     WCI  17
STERLING       CLOUDY    32  30  93 S6        30.11S WCI  26
HOLYOKE        CLOUDY    32  30  93 S13       30.17S FOG     WCI  22
FORT MORGAN    FOG       29  28  97 NW3       30.10S VSB 1/4
$$

COZ086-089-092>099-131600-
...SOUTHEAST COLORADO...

CITY           SKY/WX    TMP DP  RH WIND       PRES   REMARKS
PUEBLO         FOG       29  26  89 NW3       30.14F VSB 1/4
LA JUNTA       CLOUDY    30  28  92 N6        30.16F FOG     WCI  24
LAMAR          CLOUDY    29  28  96 S6        30.17F FOG     WCI  23
SPRINGFIELD      N/A     33  27  78 CALM      30.14S
$$



USA.gov is the U.S. government's official web portal to all federal, state and local government web resources and services.